DW1520 Weather Reports


time (UTC)temp
C
wind
direction
speed
KPH
gust
KPH
rain 1hr
cm
rain 24hr
cm
rain mn
cm
humidity
%
barometer
mb
20260906180006 26 136 1.6 8.0 0.00 0.00 0.00 72 1016.1
20260906175506 26 161 4.8 9.7 0.00 0.00 0.00 71 1016.1
20260906175007 26 161 4.8 12.9 0.00 0.00 0.00 70 1016.1
20260906174506 26 165 3.2 8.0 0.00 0.00 0.00 70 1016.1
20260906174007 26 167 3.2 8.0 0.00 0.00 0.00 71 1016.2
20260906173007 26 167 3.2 16.1 0.00 0.00 0.00 73 1016.2
20260906172506 26 160 1.6 16.1 0.00 0.00 0.00 75 1016.3
20260906172006 25 167 4.8 12.9 0.00 0.00 0.00 73 1016.4
20260906171506 25 189 3.2 8.0 0.00 0.00 0.00 74 1016.3
20260906171007 25 158 1.6 4.8 0.00 0.00 0.00 75 1016.3
20260906170507 25 173 3.2 9.7 0.00 0.00 0.00 77 1016.3
20260906170007 25 180 1.6 11.3 0.00 0.00 0.00 77 1016.4
20260906165006 25 51 1.6 8.0 0.00 0.00 0.00 76 1016.4
20260906164506 25 179 3.2 8.0 0.00 0.00 0.00 78 1016.4
20260906164007 24 173 1.6 4.8 0.00 0.00 0.00 79 1016.4
20260906163507 24 66 1.6 4.8 0.00 0.00 0.00 80 1016.5
20260906163007 23 117 3.2 9.7 0.00 0.00 0.00 79 1016.4
20260906162007 23 153 1.6 8.0 0.00 0.00 0.00 82 1016.5
20260906161506 23 143 3.2 8.0 0.00 0.00 0.00 82 1016.4
20260906160506 23 120 1.6 4.8 0.00 0.00 0.00 81 1016.3
20260906155507 23 99 3.2 9.7 0.00 0.00 0.00 82 1016.4
20260906154006 23 175 3.2 8.0 0.00 0.00 0.00 84 1016.7
20260906153007 23 169 3.2 9.7 0.00 0.00 0.00 84 1016.6
20260906152507 22 166 1.6 4.8 0.00 0.00 0.00 84 1016.6
20260906152007 22 174 1.6 4.8 0.00 0.00 0.00 85 1016.6
20260906151506 22 175 0.0 4.8 0.00 0.00 0.00 85 1016.6
20260906151006 22 129 1.6 8.0 0.00 0.00 0.00 85 1016.5
20260906150506 22 155 1.6 4.8 0.00 0.00 0.00 86 1016.6
20260906150007 22 155 1.6 4.8 0.00 0.00 0.00 87 1016.5
20260906145506 22 145 3.2 11.3 0.00 0.00 0.00 87 1016.6
20260906145006 22 184 1.6 9.7 0.00 0.00 0.00 88 1016.5
20260906144506 21 121 3.2 8.0 0.00 0.00 0.00 88 1016.5
20260906144007 21 180 3.2 8.0 0.00 0.00 0.00 88 1016.5
20260906143506 21 202 3.2 8.0 0.00 0.00 0.00 88 1016.5
20260906142506 21 159 3.2 4.8 0.00 0.00 0.00 89 1016.3
20260906142007 21 137 1.6 4.8 0.00 0.00 0.00 89 1016.2
20260906141506 21 128 1.6 8.0 0.00 0.00 0.00 90 1016.3
20260906141006 21 163 3.2 8.0 0.00 0.00 0.00 90 1016.3
20260906140506 20 194 1.6 4.8 0.00 0.00 0.00 90 1016.4
20260906140007 20 170 1.6 8.0 0.00 0.00 0.00 90 1016.3
20260906135006 20 177 4.8 12.9 0.00 0.00 0.00 90 1016.4
20260906133506 20 184 3.2 12.9 0.00 0.00 0.00 91 1016.3
20260906133007 20 181 1.6 8.0 0.00 0.00 0.00 91 1016.4
20260906132506 20 168 1.6 4.8 0.00 0.00 0.00 91 1016.4
20260906132007 20 121 1.6 4.8 0.00 0.00 0.00 91 1016.4
20260906131506 20 153 0.0 1.6 0.00 0.00 0.00 91 1016.2
20260906131007 20 157 0.0 4.8 0.00 0.00 0.00 91 1016.1
20260906130506 20 160 3.2 9.7 0.00 0.00 0.00 91 1016.2
20260906125510 20 164 3.2 11.3 0.00 0.00 0.00 92 1016.2
20260906125007 20 161 0.0 4.8 0.00 0.00 0.00 92 1016.2
20260906124006 20 161 0.0 4.8 0.00 0.00 0.00 92 1016.0
20260906123506 20 166 0.0 8.0 0.00 0.00 0.00 92 1016.0
20260906123007 20 168 0.0 8.0 0.00 0.00 0.00 92 1016.0
20260906122506 20 156 3.2 11.3 0.00 0.00 0.00 92 1015.9
20260906121007 20 157 1.6 4.8 0.00 0.00 0.00 92 1015.8
20260906120507 20 157 0.0 3.2 0.00 0.00 0.00 92 1015.8
20260906120006 20 157 1.6 8.0 0.00 0.00 0.00 92 1015.8
20260906115506 20 168 1.6 3.2 0.00 0.00 0.00 92 1015.8
20260906115006 20 168 1.6 3.2 0.00 0.00 0.00 92 1015.8
20260906114506 20 168 3.2 8.0 0.00 0.00 0.00 92 1015.7
20260906114007 20 168 0.0 4.8 0.00 0.00 0.00 92 1015.6
20260906113506 20 168 0.0 3.2 0.00 0.00 0.00 92 1015.6
20260906112007 20 168 1.6 9.7 0.00 0.00 0.00 92 1015.7
20260906111506 20 169 0.0 3.2 0.00 0.00 0.00 92 1015.8
20260906110506 20 159 1.6 4.8 0.00 0.00 0.00 92 1015.7
20260906110007 20 158 1.6 4.8 0.00 0.00 0.00 92 1015.6
20260906105506 20 155 4.8 12.9 0.00 0.00 0.00 92 1015.5
20260906105006 20 150 1.6 4.8 0.00 0.00 0.00 92 1015.3
20260906104506 20 149 0.0 4.8 0.00 0.00 0.00 92 1015.3
20260906103506 20 149 1.6 4.8 0.00 0.00 0.00 92 1015.0
20260906102006 20 153 1.6 4.8 0.00 0.00 0.00 91 1014.8
20260906101507 20 153 1.6 4.8 0.00 0.00 0.00 91 1014.8
20260906101006 20 153 0.0 1.6 0.00 0.00 0.00 91 1014.9
20260906100506 20 153 0.0 1.6 0.00 0.00 0.00 91 1014.9
20260906095506 20 153 1.6 4.8 0.00 0.00 0.00 91 1014.8
20260906095007 20 151 1.6 4.8 0.00 0.00 0.00 91 1014.7
20260906094507 20 150 1.6 4.8 0.00 0.00 0.00 91 1014.7
20260906094007 20 164 0.0 4.8 0.00 0.00 0.00 91 1014.6
20260906093506 20 164 1.6 4.8 0.00 0.00 0.00 91 1014.7
20260906093006 20 164 1.6 4.8 0.00 0.00 0.00 91 1014.7
20260906092007 20 163 1.6 8.0 0.00 0.00 0.00 91 1014.3
20260906091506 20 169 3.2 9.7 0.00 0.00 0.00 91 1014.3
20260906090506 20 162 1.6 4.8 0.00 0.00 0.00 91 1014.2
20260906090006 20 123 0.0 3.2 0.00 0.00 0.00 90 1014.2
20260906085007 21 154 1.6 3.2 0.00 0.00 0.00 90 1014.1
20260906084507 21 94 0.0 4.8 0.00 0.00 0.00 90 1014.1
20260906084007 21 181 1.6 4.8 0.00 0.00 0.00 91 1014.1
20260906083506 21 181 0.0 1.6 0.00 0.00 0.00 91 1014.3
20260906083009 21 181 0.0 4.8 0.00 0.00 0.00 91 1014.3
20260906082506 21 208 3.2 4.8 0.00 0.00 0.00 91 1014.1
20260906082007 21 165 3.2 8.0 0.00 0.00 0.00 91 1014.1
20260906081006 21 160 3.2 8.0 0.00 0.00 0.00 91 1014.4
20260906080506 21 141 1.6 4.8 0.00 0.00 0.00 91 1014.5
20260906075506 21 155 1.6 8.0 0.00 0.00 0.00 91 1014.6
20260906075006 21 170 0.0 4.8 0.00 0.00 0.00 91 1014.7
20260906074506 21 172 1.6 3.2 0.00 0.00 0.00 91 1014.5
20260906074007 21 172 0.0 3.2 0.00 0.00 0.00 91 1014.5
20260906073506 21 172 0.0 0.0 0.00 0.00 0.00 91 1014.5
20260906073007 21 172 0.0 3.2 0.00 0.00 0.00 91 1014.5
20260906072507 21 172 1.6 4.8 0.00 0.00 0.00 91 1014.5
20260906072007 21 172 1.6 9.7 0.00 0.00 0.00 91 1014.5
20260906071507 21 172 0.0 4.8 0.00 0.00 0.00 91 1014.6
20260906071007 21 224 0.0 4.8 0.00 0.00 0.00 91 1014.7
20260906070506 21 232 0.0 8.0 0.00 0.00 0.00 91 1014.7
20260906070006 21 348 1.6 3.2 0.00 0.00 0.00 91 1014.6
20260906065506 21 348 1.6 3.2 0.00 0.00 0.00 91 1014.6
20260906065006 21 348 0.0 4.8 0.00 0.00 0.00 91 1014.7
20260906064506 21 348 3.2 4.8 0.00 0.00 0.00 91 1014.7
20260906064007 21 348 1.6 4.8 0.00 0.00 0.00 91 1014.7
20260906063506 21 348 0.0 1.6 0.00 0.00 0.00 90 1014.8
20260906063007 21 348 0.0 3.2 0.00 0.00 0.00 90 1014.9
20260906062006 21 348 0.0 1.6 0.00 0.00 0.00 90 1014.9
20260906061007 21 348 0.0 3.2 0.00 0.00 0.00 90 1014.8
20260906060006 21 348 0.0 0.0 0.00 0.00 0.00 90 1014.8
20260906055506 21 348 0.0 1.6 0.00 0.00 0.00 90 1014.9
20260906055006 21 348 0.0 3.2 0.00 0.00 0.00 90 1015.0
20260906053006 21 348 0.0 0.0 0.00 0.00 0.00 89 1015.0
20260906052506 21 348 0.0 0.0 0.00 0.00 0.00 89 1014.9
20260906051506 21 348 0.0 0.0 0.00 0.00 0.00 89 1015.0
20260906051006 22 348 0.0 0.0 0.00 0.00 0.00 88 1015.0
20260906050506 22 348 0.0 0.0 0.00 0.00 0.00 88 1014.9
20260906050006 22 348 0.0 0.0 0.00 0.00 0.00 88 1014.9
20260906045506 22 348 0.0 0.0 0.00 0.00 0.00 88 1014.9
20260906045006 22 348 0.0 0.0 0.00 0.00 0.00 88 1014.8
20260906044006 22 348 1.6 3.2 0.00 0.00 0.00 89 1014.8
20260906043006 22 348 0.0 1.6 0.00 0.00 0.00 89 1014.8
20260906042506 22 348 0.0 1.6 0.00 0.00 0.00 89 1014.8
20260906042006 22 348 0.0 1.6 0.00 0.00 0.00 89 1014.8
20260906041007 22 348 0.0 0.0 0.00 0.00 0.00 89 1014.7
20260906040507 22 348 0.0 1.6 0.00 0.00 0.00 89 1014.7
20260906040006 22 348 0.0 0.0 0.00 0.00 0.00 89 1014.7
20260906035506 22 348 0.0 0.0 0.00 0.00 0.00 89 1014.7
20260906035006 22 348 0.0 0.0 0.00 0.00 0.00 89 1014.8
20260906034006 22 348 0.0 0.0 0.00 0.00 0.00 88 1014.8
20260906033007 22 348 0.0 0.0 0.00 0.00 0.00 88 1014.8
20260906032506 22 348 0.0 0.0 0.00 0.00 0.00 88 1014.8
20260906032006 22 348 0.0 0.0 0.00 0.00 0.00 88 1014.8
20260906031506 22 348 0.0 0.0 0.00 0.00 0.00 88 1014.7
20260906030507 22 348 0.0 0.0 0.00 0.00 0.00 88 1014.5
20260906030006 22 348 0.0 0.0 0.00 0.00 0.00 88 1014.4
20260906025506 22 348 0.0 0.0 0.00 0.00 0.00 88 1014.5
20260906024506 22 348 0.0 1.6 0.00 0.00 0.00 87 1014.3
20260906024007 22 348 0.0 1.6 0.00 0.00 0.00 87 1014.3
20260906023506 22 348 0.0 0.0 0.00 0.00 0.00 87 1014.2
20260906022506 22 348 0.0 0.0 0.00 0.00 0.00 87 1014.1
20260906022007 22 348 0.0 1.6 0.00 0.00 0.00 87 1013.9
20260906021506 23 348 1.6 3.2 0.00 0.00 0.00 87 1013.8
20260906021007 23 348 0.0 0.0 0.00 0.00 0.00 87 1013.7
20260906020507 23 348 0.0 1.6 0.00 0.00 0.00 87 1013.5
20260906020006 23 348 1.6 3.2 0.00 0.00 0.00 87 1013.4
20260906015506 23 348 0.0 0.0 0.00 0.00 0.00 87 1013.4
20260906014006 23 348 0.0 0.0 0.00 0.00 0.00 87 1013.3
20260906013507 23 348 0.0 3.2 0.00 0.00 0.00 87 1013.2
20260906013007 23 348 0.0 0.0 0.00 0.00 0.00 86 1013.2
20260906012507 23 348 1.6 3.2 0.00 0.00 0.00 86 1013.1
20260906012007 23 348 0.0 4.8 0.00 0.00 0.00 86 1012.9
20260906011506 23 348 0.0 4.8 0.00 0.00 0.00 86 1012.8
20260906011006 23 348 0.0 3.2 0.00 0.00 0.00 86 1012.7
20260906010506 23 348 0.0 3.2 0.00 0.00 0.00 85 1012.7
20260906010006 23 348 0.0 0.0 0.00 0.00 0.00 85 1012.7
20260906005506 23 348 0.0 1.6 0.00 0.00 0.00 85 1012.7
20260906005006 23 348 0.0 0.0 0.00 0.00 0.00 84 1012.7
20260906004506 23 348 0.0 0.0 0.00 0.00 0.00 84 1012.7
20260906004007 23 348 0.0 0.0 0.00 0.00 0.00 84 1012.6
20260906003506 24 348 0.0 1.6 0.00 0.00 0.00 84 1012.5
20260906003006 24 348 0.0 3.2 0.00 0.00 0.00 83 1012.4
20260906002506 24 348 0.0 3.2 0.00 0.00 0.00 83 1012.4
20260906002006 24 344 0.0 0.0 0.00 0.00 0.00 82 1012.5
20260906001506 24 344 0.0 1.6 0.00 0.00 0.00 82 1012.5
20260906001007 24 344 0.0 1.6 0.00 0.00 0.00 82 1012.6
20260906000506 24 344 0.0 3.2 0.00 0.00 0.00 82 1012.7
20260906000006 24 344 0.0 1.6 0.00 0.00 0.00 82 1012.7
20260905235506 25 344 0.0 3.2 0.00 0.00 0.00 81 1012.6
20260905235007 25 344 0.0 3.2 0.00 0.00 0.00 81 1012.6
20260905234506 25 344 1.6 4.8 0.00 0.00 0.00 81 1012.6
20260905234006 25 163 1.6 11.3 0.00 0.00 0.00 81 1012.5
20260905233507 25 165 3.2 11.3 0.00 0.00 0.00 81 1012.4
20260905233006 25 69 0.0 4.8 0.00 0.00 0.00 81 1012.4
20260905232506 25 49 0.0 4.8 0.00 0.00 0.00 81 1012.4
20260905232006 25 46 3.2 4.8 0.00 0.00 0.00 80 1012.4
20260905231506 25 355 1.6 4.8 0.00 0.00 0.00 80 1012.3
20260905230006 25 35 3.2 8.0 0.00 0.00 0.00 80 1012.2
20260905225506 25 32 3.2 8.0 0.00 0.00 0.00 79 1012.1
20260905225006 25 94 1.6 4.8 0.00 0.00 0.00 79 1012.0
20260905224506 25 338 3.2 8.0 0.00 0.00 0.00 80 1011.9
20260905224006 25 358 1.6 8.0 0.00 0.00 0.00 80 1011.9
20260905223506 25 26 6.4 11.3 0.00 0.00 0.00 80 1011.9
20260905222006 25 66 4.8 9.7 0.00 0.00 0.00 79 1011.9
20260905221506 25 2 3.2 14.5 0.00 0.00 0.00 79 1011.9
20260905220506 25 11 3.2 8.0 0.00 0.00 0.00 79 1011.8
20260905220006 25 22 4.8 14.5 0.00 0.00 0.00 79 1011.8
20260905215506 25 65 4.8 14.5 0.00 0.00 0.00 79 1011.7
20260905215007 25 11 3.2 9.7 0.00 0.00 0.00 79 1011.8
20260905214506 25 19 3.2 12.9 0.00 0.00 0.00 80 1012.0
20260905214006 25 22 1.6 11.3 0.00 0.00 0.00 80 1011.9
20260905213506 25 46 4.8 11.3 0.00 0.00 0.00 80 1011.8
20260905213006 25 12 3.2 8.0 0.00 0.00 0.00 80 1011.9
20260905212506 25 336 3.2 4.8 0.00 0.00 0.00 80 1012.0
20260905212006 25 0 1.6 4.8 0.00 0.00 0.00 80 1012.2
20260905211006 25 352 3.2 8.0 0.00 0.00 0.00 79 1012.1
20260905210506 26 352 3.2 4.8 0.00 0.00 0.00 79 1012.1
20260905210006 26 343 3.2 4.8 0.00 0.00 0.00 79 1012.1
20260905205006 26 19 1.6 9.7 0.00 0.00 0.00 79 1012.3
20260905204506 26 76 3.2 4.8 0.00 0.00 0.00 79 1012.4
20260905204006 26 15 1.6 4.8 0.00 0.00 0.00 79 1012.5
20260905203006 26 336 3.2 8.0 0.00 0.00 0.00 79 1012.6
20260905202506 26 351 3.2 4.8 0.00 0.00 0.00 79 1012.6
20260905202006 26 0 3.2 4.8 0.00 0.00 0.00 79 1012.6
20260905201006 26 232 1.6 4.8 0.00 0.00 0.00 78 1012.9
20260905200006 26 193 0.0 4.8 0.00 0.00 0.00 79 1013.1
20260905195506 26 193 1.6 3.2 0.00 0.00 0.00 80 1013.2
20260905195007 26 194 0.0 3.2 0.00 0.00 0.00 80 1013.2
20260905194006 26 166 1.6 4.8 0.00 0.00 0.00 80 1013.3
20260905193506 26 116 1.6 4.8 0.00 0.00 0.00 80 1013.4
20260905193006 26 116 1.6 3.2 0.00 0.00 0.00 80 1013.5
20260905192506 26 116 1.6 4.8 0.00 0.00 0.00 79 1013.4
20260905192006 26 115 1.6 3.2 0.00 0.00 0.00 80 1013.3
20260905191506 26 121 0.0 3.2 0.00 0.00 0.00 79 1013.4
20260905191006 26 121 1.6 4.8 0.00 0.00 0.00 79 1013.5
20260905190506 26 121 1.6 8.0 0.00 0.00 0.00 79 1013.5
20260905190006 26 161 1.6 8.0 0.00 0.00 0.00 80 1013.5
20260905185506 26 111 1.6 4.8 0.00 0.00 0.00 81 1013.4
20260905185007 26 110 0.0 4.8 0.00 0.00 0.00 81 1013.4
20260905184006 25 303 1.6 4.8 0.00 0.00 0.00 81 1013.6
20260905183506 25 344 1.6 4.8 0.00 0.00 0.00 83 1013.5
20260905183006 25 34 3.2 4.8 0.00 0.00 0.00 82 1013.4
20260905182506 25 5 0.0 4.8 0.00 0.00 0.00 84 1013.6
20260905182006 25 5 0.0 1.6 0.00 0.00 0.00 84 1013.8
20260905181506 24 5 1.6 3.2 0.00 0.00 0.00 85 1013.9
20260905181006 24 15 0.0 3.2 0.00 0.00 0.00 85 1013.9
20260905180506 24 31 0.0 3.2 0.00 0.00 0.00 85 1014.0